Change the Weather History Date:

Monday, April 1, 2013

  Actual Average Record
Temperature  
Mean Temperature 48 °F -  
Max Temperature 53 °F 56 °F 75 °F (2002)
Min Temperature 44 °F 36 °F 19 °F (2008)
Degree Days  
Heating Degree Days 16    
Moisture  
Dew Point 37 °F    
Average Humidity 65    
Maximum Humidity 76    
Minimum Humidity 47    
Precipitation  
Precipitation 0.11 in - - ()
Sea Level Pressure  
Sea Level Pressure 29.95 in    
Wind  
Wind Speed 10 mph (NNW)    
Max Wind Speed 21 mph    
Max Gust Speed 26 mph    
Visibility 10 miles    
Events      
Averages and records for this station are not official NWS values.
T = Trace of Precipitation, MM = Missing Value Source: NWS Daily Summary

Daily Weather History Graph

Daily Weather History Graph

Search for Another Location

Airport or City:

Trip Planner

Search our weather history database for the weather conditions in past years. The results will help you decide how hot, cold, wet, or windy it might be!

Date:

Astronomy

Apr. 01, 2013 Rise Set
Actual Time 7:19 AM MDT 8:01 PM MDT
Civil Twilight 6:51 AM MDT 8:28 PM MDT
Nautical Twilight 6:18 AM MDT 9:01 PM MDT
Astronomical Twilight 5:45 AM MDT 9:35 PM MDT
Moon 1:14 AM MDT (4/1) 11:08 AM MDT (4/1)
Length of Visible Light 13h 37m
Length of Day
12h 42m
Waning Gibbous, 66% of the Moon is Illuminated
Apr 1
Waning Gibbous
Apr 2
Last Quarter
Apr 10
New
Apr 18
First Quarter
Apr 25
Full

Hourly Weather History & Observations

Time (MDT) Temp. Windchill Dew Point Humidity Pressure Visibility Wind Dir Wind Speed Gust Speed Precip Events Conditions
12:15 AM 53.6 °F - 35.6 °F 51% 29.95 in 10.0 mi WNW 13.8 mph - N/A   Scattered Clouds
12:35 AM 53.6 °F - 35.6 °F 51% 29.95 in 10.0 mi WNW 15.0 mph - N/A   Clear
1:15 AM 53.6 °F - 33.8 °F 47% 29.93 in 10.0 mi NNW 11.5 mph - N/A   Clear
1:35 AM 53.6 °F - 33.8 °F 47% 29.94 in 10.0 mi NW 13.8 mph 23.0 mph N/A   Clear
1:55 AM 53.6 °F - 33.8 °F 47% 29.94 in 10.0 mi North 6.9 mph - N/A   Scattered Clouds
2:15 AM 53.6 °F - 33.8 °F 47% 29.93 in 10.0 mi NE 9.2 mph - N/A   Partly Cloudy
2:35 AM 51.8 °F - 35.6 °F 54% 29.93 in 10.0 mi ENE 8.1 mph - N/A   Clear
2:55 AM 51.8 °F - 35.6 °F 54% 29.93 in 10.0 mi NE 9.2 mph - N/A   Clear
3:15 AM 51.8 °F - 33.8 °F 50% 29.92 in 10.0 mi NNE 6.9 mph - N/A   Clear
3:35 AM 51.8 °F - 33.8 °F 50% 29.92 in 10.0 mi West 4.6 mph - N/A   Clear
3:55 AM 53.6 °F - 33.8 °F 47% 29.92 in 10.0 mi Calm Calm - N/A   Clear
4:15 AM 50.0 °F - 33.8 °F 54% 29.91 in 10.0 mi West 3.5 mph - N/A   Clear
4:35 AM 50.0 °F - 35.6 °F 58% 29.91 in 10.0 mi West 3.5 mph - N/A   Clear
4:55 AM 48.2 °F - 33.8 °F 58% 29.92 in 10.0 mi Calm Calm - N/A   Mostly Cloudy
5:15 AM 50.0 °F - 35.6 °F 58% 29.92 in 10.0 mi Calm Calm - N/A   Overcast
5:35 AM 48.2 °F - 35.6 °F 62% 29.93 in 10.0 mi ESE 4.6 mph - N/A   Mostly Cloudy
6:35 AM 48.2 °F - 39.2 °F 71% 29.95 in 9.0 mi East 4.6 mph - N/A   Mostly Cloudy
6:55 AM 48.2 °F - 39.2 °F 71% 29.92 in 10.0 mi NNW 6.9 mph - N/A   Scattered Clouds
7:15 AM 48.2 °F - 39.2 °F 71% 29.92 in 10.0 mi West 9.2 mph - N/A   Scattered Clouds
7:35 AM 48.2 °F - 39.2 °F 71% 29.91 in 10.0 mi NW 13.8 mph - N/A   Scattered Clouds
7:55 AM 50.0 °F - 35.6 °F 58% 29.91 in 10.0 mi NNE 6.9 mph - N/A   Scattered Clouds
8:15 AM 48.2 °F - 37.4 °F 66% 29.92 in 10.0 mi NE 4.6 mph - N/A   Scattered Clouds
8:35 AM 48.2 °F - 39.2 °F 71% 29.93 in 10.0 mi SSW 9.2 mph - N/A   Scattered Clouds
8:55 AM 50.0 °F - 37.4 °F 62% 29.93 in 10.0 mi WNW 10.4 mph - N/A   Partly Cloudy
9:15 AM 50.0 °F - 37.4 °F 62% 29.93 in 10.0 mi NNW 12.7 mph - N/A   Partly Cloudy
9:35 AM 50.0 °F - 39.2 °F 66% 29.94 in 10.0 mi ENE 4.6 mph - N/A   Partly Cloudy
9:55 AM 50.0 °F - 39.2 °F 66% 29.93 in 10.0 mi WSW 3.5 mph - N/A   Mostly Cloudy
10:15 AM 51.8 °F - 39.2 °F 62% 29.94 in 10.0 mi South 9.2 mph - N/A   Partly Cloudy
10:35 AM 50.0 °F - 39.2 °F 66% 29.94 in 10.0 mi NW 5.8 mph - N/A   Mostly Cloudy
10:55 AM 50.0 °F - 39.2 °F 66% 29.94 in 10.0 mi SSW 19.6 mph 24.2 mph N/A   Overcast
11:15 AM 48.2 °F - 39.2 °F 71% 29.95 in 10.0 mi South 12.7 mph 24.2 mph N/A   Overcast
11:35 AM 48.2 °F - 39.2 °F 71% 29.95 in 10.0 mi North 6.9 mph - N/A   Overcast
11:55 AM 48.2 °F - 39.2 °F 71% 29.96 in 10.0 mi ESE 3.5 mph - N/A   Scattered Clouds
12:15 PM 48.2 °F - 39.2 °F 71% 29.97 in 10.0 mi East 4.6 mph - N/A   Clear
12:35 PM 48.2 °F - 39.2 °F 71% 29.97 in 5.0 mi Calm Calm - N/A   Scattered Clouds
12:55 PM 46.4 °F 43.5 °F 39.2 °F 76% 29.98 in 5.0 mi NE 5.8 mph - N/A   Overcast
1:15 PM 44.6 °F 39.7 °F 37.4 °F 76% 29.98 in 10.0 mi NNW 9.2 mph - 0.03 in   Overcast
1:35 PM 44.6 °F 38.8 °F 37.4 °F 76% 29.97 in 8.0 mi NW 11.5 mph - 0.05 in   Overcast
1:55 PM 44.6 °F 38.1 °F 37.4 °F 76% 29.97 in 7.0 mi NW 13.8 mph - 0.08 in   Overcast
2:15 PM 46.4 °F 39.8 °F 39.2 °F 76% 29.96 in 10.0 mi NW 16.1 mph - 0.01 in   Mostly Cloudy
2:35 PM 46.4 °F 40.4 °F 39.2 °F 76% 29.96 in 10.0 mi NNW 13.8 mph 20.7 mph 0.01 in   Mostly Cloudy
2:55 PM 46.4 °F 39.5 °F 39.2 °F 76% 29.96 in 10.0 mi NNW 17.3 mph 23.0 mph 0.01 in   Partly Cloudy
3:15 PM 46.4 °F 40.4 °F 37.4 °F 71% 29.97 in 10.0 mi NNW 13.8 mph - 0.01 in   Mostly Cloudy
3:35 PM 46.4 °F 39.0 °F 37.4 °F 71% 29.96 in 9.0 mi NNW 19.6 mph 26.5 mph 0.01 in   Overcast
4:15 PM 48.2 °F - 39.2 °F 71% 29.96 in 10.0 mi NW 20.7 mph 25.3 mph N/A   Overcast
4:35 PM 46.4 °F 39.8 °F 39.2 °F 76% 29.95 in 10.0 mi NW 16.1 mph 24.2 mph 0.01 in   Overcast
4:55 PM 48.2 °F - 39.2 °F 71% 29.95 in 10.0 mi NW 17.3 mph 24.2 mph 0.01 in   Overcast
5:15 PM 48.2 °F - 37.4 °F 66% 29.95 in 10.0 mi NW 19.6 mph - N/A   Overcast
5:35 PM 48.2 °F - 37.4 °F 66% 29.95 in 10.0 mi NW 19.6 mph 24.2 mph N/A   Overcast
5:55 PM 48.2 °F - 37.4 °F 66% 29.95 in 10.0 mi NW 20.7 mph 26.5 mph N/A   Overcast
6:15 PM 48.2 °F - 37.4 °F 66% 29.95 in 10.0 mi NW 17.3 mph 24.2 mph N/A   Overcast
6:35 PM 48.2 °F - 37.4 °F 66% 29.95 in 10.0 mi NNW 13.8 mph - N/A   Overcast
6:55 PM 48.2 °F - 37.4 °F 66% 29.95 in 10.0 mi NNW 15.0 mph - N/A   Overcast
7:15 PM 48.2 °F - 37.4 °F 66% 29.96 in 10.0 mi NNW 11.5 mph - N/A   Overcast
7:55 PM 48.2 °F - 37.4 °F 66% 29.97 in 10.0 mi NNW 11.5 mph 16.1 mph N/A   Mostly Cloudy
8:15 PM 48.2 °F - 37.4 °F 66% 29.98 in 10.0 mi NW 11.5 mph - N/A   Mostly Cloudy
8:35 PM 48.2 °F - 37.4 °F 66% 29.98 in 10.0 mi NNW 11.5 mph - N/A   Overcast
8:55 PM 48.2 °F - 37.4 °F 66% 29.99 in 10.0 mi Calm Calm - N/A   Overcast
9:15 PM 46.4 °F 45.2 °F 37.4 °F 71% 29.99 in 10.0 mi NE 3.5 mph - N/A   Overcast
9:35 PM 48.2 °F - 37.4 °F 66% 30.00 in 10.0 mi NW 13.8 mph - N/A   Overcast
10:15 PM 46.4 °F 40.7 °F 37.4 °F 71% 30.00 in 10.0 mi NW 12.7 mph - N/A   Overcast
10:35 PM 46.4 °F 41.9 °F 35.6 °F 66% 30.00 in 10.0 mi WNW 9.2 mph - N/A   Overcast
10:55 PM 46.4 °F 41.5 °F 35.6 °F 66% 30.00 in 10.0 mi NW 10.4 mph - N/A   Overcast
11:15 PM 46.4 °F 39.8 °F 35.6 °F 66% 30.00 in 10.0 mi NW 16.1 mph - N/A   Overcast
11:35 PM 46.4 °F 38.7 °F 35.6 °F 66% 29.99 in 10.0 mi NW 20.7 mph 26.5 mph N/A   Overcast
11:55 PM 46.4 °F 40.1 °F 35.6 °F 66% 29.99 in 10.0 mi NW 15.0 mph 24.2 mph N/A   Overcast